ASTRA 5B (39617 NORAD) Tracking and Keplerian Element Data

This shows tracking and keplerian element data for the satellite.

Feedback or suggestion? Click here.




ElementValue
Catalog39617
NameASTRA 5B
Epoch Orbit1738
Epoch Day349.17896319
Epoch Year2018
RAAN324.7959
Inclination0.0325
Eccentricity0.0003466
Argument of Perigee280.1365
Mean Anonmoly294.8059
Mean Motion1.00275933
Decay Rate1.67E-06
L11 39617U 14011B 18349.17896319 .00000167 00000-0 00000+0 0 9995
L22 39617 0.0325 324.7959 0003466 280.1365 294.8059 1.00275933 17387

Live tracking and technical data element details for ASTRA 5B (NORAD 39617). ASTRA 5B can be tracked NOW for your location showing map with azimuth and elevation plus other details from your city location.

Track the satellite on the map from your city or location and see movement details for azimuth, elevation, latitude, longitude, range, height, and movement on the map or in text.







IsCatalogInMostPopularTable: catalog: 39617, numindb: 89
Update: records affected: 1



GetName: 39617 ASTRA 5B

Hit Count: updated at: Sat, 15 Dec 2018 14:10:23 GMT